Tracking 30995 objects as of 5-Jul-2025
HD Live streaming from Space Station
objects crossing your sky now

STARLINK-30593

Track STARLINK-30593 now!
10-day predictions
STARLINK-30593 is classified as:


NORAD ID: 58112
Int'l Code: 2023-161R
Perigee: 481.7 km
Apogee: 483.0 km
Inclination: 53.2 °
Period: 94.1 minutes
Semi major axis: 6853 km
RCS: Unknown
Launch date: October 21, 2023
Source: United States (US)
Launch site: AIR FORCE WESTERN TEST RANGE (AFWTR)
Your satellite tracking list
Your tracking list is empty




NASA's NSSDC Master Catalog

Two Line Element Set (TLE):
1 58112U 23161R   25186.36552081 -.00000582  00000-0 -75318-5 0  9998
2 58112  53.1583 234.4344 0000978  87.6173 272.4939 15.30195427 96552
Source of the keplerian elements: AFSPC